Content
SEND FEEDBACK

Daily
Averages
Monthly
Summary
United States of America

KELLIHER, MINNESOTA


Home > North America > United States > Minnesota
Elevation: 1390 feet     Latitude: 47 56N     Longitude: 094 27W

WEATHER
 
SELECT A DAY
Number of Records: 373,865;   Date Range: 2/4/99 - 9/21/14
 
SHARE

PRINT THIS DATA

[ ← Previous Day ]
WEATHER ALMANAC - JANUARY 23, 2013
[ Next Day → ]
[ °C ]   °F
Weather ElementAverageHighLow
Temperature-9 °F1.4 °F (3:55 am)-20.2 °F (11:15 pm)
Dewpoint-16.5 °F-2.2 °F (3:55 am)-25.6 °F (11:15 pm)
Humidity70.3 %85 % (1:15 am)54 % (2:35 pm)
Barometer30.34 in30.60 in (11:15 pm)30.04 in (4:55 am)
Wind Speed7.9 mph16.1 mph (10:34 am)
Wind Gust23 mph (10:34 am)
Weather ElementAverage
Visibility9.7 mi
Wind DirectionWSW (264.3 °)

Weather ElementTotal
Precipitation---
Heating Degree Days74.4 (Base 65)
Averaged from 60 records on January 23, 2013
WEATHER CONDITIONS BREAKOUT
WIND DIRECTION BREAKOUT
WEATHER BY HOUR - JANUARY 23, 2013
[ °C ]   °F
Local TimeTemperatureDewpointHumidityBarometerVisibilityWind DirectionWind SpeedGust SpeedPrecipitationEventsConditions
12:35 AM-2.2 °F-7.6 °F78 %30.07 in10.0 miWSW (240°)6.9 mphOvercast
12:55 AM-2.2 °F-7.6 °F78 %30.06 in10.0 miWSW (240°)6.9 mphOvercast
1:15 AM-2.2 °F-5.8 °F85 %30.07 in10.0 miWSW (250°)8.1 mphOvercast
1:35 AM-0.4 °F-5.8 °F78 %30.07 in10.0 miWSW (240°)8.1 mphOvercast
1:55 AM-0.4 °F-5.8 °F78 %30.07 in10.0 miWSW (250°)6.9 mphOvercast
2:35 AM-0.4 °F-5.8 °F78 %30.06 in5.0 miWSW (240°)6.9 mphOvercast
3:55 AM1.4 °F-2.2 °F85 %30.05 in7.0 miWSW (240°)10.4 mphOvercast
4:55 AM1.4 °F-2.2 °F85 %30.04 in7.0 miWSW (250°)10.4 mphOvercast
6:35 AM-2.2 °F-5.8 °F85 %30.07 in10.0 miWest (280°)8.1 mphMostly Cloudy
6:55 AM-2.2 °F-7.6 °F78 %30.08 in10.0 miWest (270°)8.1 mphScattered Clouds
7:15 AM-4.0 °F-7.6 °F85 %30.08 in10.0 miWest (270°)9.2 mphClear
7:55 AM-5.8 °F-9.4 °F84 %30.10 in10.0 miWNW (290°)10.4 mphClear
8:15 AM-5.8 °F-9.4 °F84 %30.12 in10.0 miWNW (300°)10.4 mphClear
8:35 AM-5.8 °F-9.4 °F84 %30.14 in10.0 miNW (310°)12.7 mph19.6 mphScattered Clouds
8:55 AM-5.8 °F-11.2 °F77 %30.15 in10.0 miNW (310°)12.7 mph16.1 mphClear
9:15 AM-5.8 °F-11.2 °F77 %30.17 in10.0 miNW (310°)11.5 mph21.9 mphMostly Cloudy
9:34 AM-5.8 °F-13.0 °F71 %30.19 in10.0 miNW (310°)12.7 mph20.7 mphOvercast
9:55 AM-5.8 °F-13.0 °F71 %30.20 in7.0 miNW (310°)12.7 mph20.7 mphOvercast
10:15 AM-5.8 °F-13.0 °F71 %30.22 in10.0 miNW (320°)15.0 mph19.6 mphOvercast
10:34 AM-5.8 °F-14.8 °F65 %30.23 in10.0 miNW (320°)16.1 mph23.0 mphOvercast
10:55 AM-5.8 °F-14.8 °F65 %30.25 in10.0 miNW (320°)13.8 mph21.9 mphMostly Cloudy
11:15 AM-5.8 °F-14.8 °F65 %30.25 in7.0 miNNW (330°)15.0 mph21.9 mphMostly Cloudy
11:35 AM-5.8 °F-16.6 °F60 %30.26 in10.0 miNW (320°)15.0 mph20.7 mphMostly Cloudy
11:55 AM-5.8 °F-16.6 °F60 %30.27 in10.0 miNNW (340°)12.7 mph21.9 mphScattered Clouds
12:15 PM-5.8 °F-16.6 °F60 %30.28 in10.0 miNNW (330°)10.4 mph21.9 mphScattered Clouds
12:35 PM-5.8 °F-16.6 °F60 %30.30 in10.0 miNNW (330°)12.7 mph20.7 mphScattered Clouds
12:55 PM-5.8 °F-16.6 °F60 %30.30 in7.0 miNNW (330°)9.2 mph17.3 mphScattered Clouds
1:15 PM-5.8 °F-16.6 °F60 %30.32 in10.0 miNW (320°)15.0 mph18.4 mphScattered Clouds
1:35 PM-5.8 °F-18.4 °F55 %30.33 in10.0 miNNW (330°)12.7 mph20.7 mphScattered Clouds
1:55 PM-7.6 °F-18.4 °F59 %30.34 in10.0 miNW (320°)13.8 mph18.4 mphScattered Clouds
2:15 PM-7.6 °F-18.4 °F59 %30.35 in10.0 miNW (320°)12.7 mph19.6 mphScattered Clouds
2:35 PM-7.6 °F-20.2 °F54 %30.37 in10.0 miNNW (330°)10.4 mph18.4 mphClear
2:55 PM-7.6 °F-18.4 °F59 %30.39 in10.0 miNNW (330°)11.5 mph16.1 mphClear
3:15 PM-7.6 °F-18.4 °F59 %30.40 in10.0 miNW (310°)9.2 mph
3:35 PM-7.6 °F-18.4 °F59 %30.41 in10.0 miNW (310°)11.5 mph17.3 mphScattered Clouds
3:55 PM-9.4 °F-20.2 °F59 %30.43 in10.0 miNW (320°)9.2 mphClear
4:15 PM-9.4 °F-20.2 °F59 %30.44 in10.0 miNNW (330°)9.2 mphClear
4:35 PM-9.4 °F-20.2 °F59 %30.46 in10.0 miNNW (330°)8.1 mphClear
4:55 PM-11.2 °F-20.2 °F64 %30.46 in10.0 miNNW (330°)6.9 mphClear
5:15 PM-11.2 °F-20.2 °F64 %30.48 in10.0 miNNW (340°)4.6 mphClear
5:35 PM-11.2 °F-20.2 °F64 %30.49 in10.0 miNNW (330°)4.6 mphClear
5:55 PM-13.0 °F-20.2 °F70 %30.49 in10.0 miNNW (340°)3.5 mphClear
6:15 PM-13.0 °F-20.2 °F70 %30.50 in10.0 miNNW (330°)3.5 mphClear
6:35 PM-14.8 °F-20.2 °F77 %30.50 in10.0 miNNW (340°)4.6 mphClear
6:55 PM-14.8 °F-20.2 °F77 %30.51 in10.0 miNNW (330°)3.5 mphClear
7:15 PM-14.8 °F-22.0 °F70 %30.52 in10.0 miNNW (340°)3.5 mphClear
7:35 PM-14.8 °F-22.0 °F70 %30.52 in10.0 miNNW (340°)3.5 mphClear
7:55 PM-14.8 °F-23.8 °F64 %30.53 in10.0 miCalmClear
8:14 PM-14.8 °F-23.8 °F64 %30.52 in10.0 miCalmClear
8:35 PM-16.6 °F-23.8 °F70 %30.53 in10.0 miCalmClear
8:55 PM-16.6 °F-23.8 °F70 %30.54 in10.0 miWNW (290°)3.5 mphClear
9:14 PM-16.6 °F-23.8 °F70 %30.56 in10.0 miWest (280°)5.8 mphClear
9:35 PM-16.6 °F-23.8 °F70 %30.56 in10.0 miWNW (290°)4.6 mphClear
9:55 PM-16.6 °F-23.8 °F70 %30.57 in10.0 miCalmClear
10:14 PM-18.4 °F-23.8 °F76 %30.58 in10.0 miWest (280°)3.5 mphClear
10:35 PM-18.4 °F-23.8 °F76 %30.58 in10.0 miCalmClear
10:55 PM-18.4 °F-23.8 °F76 %30.59 in10.0 miWNW (300°)3.5 mphClear
11:15 PM-20.2 °F-25.6 °F76 %30.60 in10.0 miCalmClear
11:35 PM-20.2 °F-23.8 °F83 %30.60 in10.0 miCalmClear
11:55 PM-20.2 °F-25.6 °F76 %30.60 in10.0 miCalmClear
Hourly data recorded from KVWU, located miles away from Kelliher, Minnesota







STORIES FROM OUR PARTNERS